Change the Weather History Date:

Monday, October 22, 2012

  Actual Average (KEYE) Record (KEYE)
Temperature  
Mean Temperature 62 °F 53 °F  
Max Temperature 74 °F 62 °F 74 °F (2012)
Min Temperature 51 °F 43 °F 30 °F (1997)
Degree Days  
Heating Degree Days 2 12  
Month to date heating degree days 205  
Since 1 July heating degree days 266  
Cooling Degree Days 0 0  
Month to date cooling degree days 12  
Year to date cooling degree days 1055  
Growing Degree Days 12 (Base 50)    
Moisture  
Dew Point 51 °F    
Average Humidity 66    
Maximum Humidity 81    
Minimum Humidity 46    
Precipitation  
Precipitation 0.01 in 0.10 in 0.69 in (2007)
Month to date precipitation 2.24  
Year to date precipitation 33.14  
Sea Level Pressure  
Sea Level Pressure 30.04 in    
Wind  
Wind Speed 6 mph (SSE)    
Max Wind Speed 16 mph    
Max Gust Speed 22 mph    
Visibility 10 miles    
Events Rain , Thunderstorm    
T = Trace of Precipitation, MM = Missing Value Source: NWS Daily Summary

Daily Weather History Graph

Daily Weather History Graph

Search for Another Location

Airport or City:

Trip Planner

Search our weather history database for the weather conditions in past years. The results will help you decide how hot, cold, wet, or windy it might be!

Date:

Astronomy

Oct. 22, 2012 Rise Set
Actual Time 8:03 AM EDT 6:54 PM EDT
Civil Twilight 7:35 AM EDT 7:22 PM EDT
Nautical Twilight 7:04 AM EDT 7:53 PM EDT
Astronomical Twilight 6:32 AM EDT 8:25 PM EDT
Moon 3:02 PM EDT (10/22) 12:49 AM EDT (10/22)
Length of Visible Light 11h 46m
Length of Day
10h 51m
First Quarter, 56% of the Moon is Illuminated
Oct 22
First Quarter
Oct 29
Full
Nov 6
Last Quarter
Nov 13
New
Nov 20
First Quarter

Hourly Weather History & Observations

Time (EDT) Temp. Dew Point Humidity Pressure Visibility Wind Dir Wind Speed Gust Speed Precip Events Conditions
12:35 AM 55.4 °F 45.5 °F 69% 30.06 in 10.0 mi SSE 4.6 mph - N/A   Scattered Clouds
12:55 AM 55.0 °F 45.3 °F 70% 30.06 in 10.0 mi SSE 4.6 mph - N/A   Clear
1:15 AM 54.7 °F 45.5 °F 71% 30.06 in 10.0 mi SSE 4.6 mph - N/A   Scattered Clouds
1:35 AM 54.5 °F 45.5 °F 72% 30.05 in 10.0 mi SSE 4.6 mph - N/A   Clear
1:55 AM 53.2 °F 45.0 °F 73% 30.05 in 10.0 mi SSE 4.6 mph - N/A   Clear
2:35 AM 53.1 °F 45.1 °F 74% 30.05 in 10.0 mi SSE 4.6 mph - N/A   Clear
2:55 AM 53.6 °F 45.5 °F 74% 30.06 in 10.0 mi SSE 3.5 mph - N/A   Clear
3:55 AM 52.2 °F 45.0 °F 76% 30.05 in 10.0 mi SE 3.5 mph - N/A   Clear
4:15 AM 52.2 °F 45.0 °F 76% 30.05 in 10.0 mi Calm Calm - N/A   Clear
4:55 AM 51.8 °F 45.7 °F 80% 30.05 in 10.0 mi SSE 4.6 mph - N/A   Overcast
5:15 AM 53.4 °F 46.9 °F 79% 30.05 in 10.0 mi SSE 4.6 mph - N/A   Overcast
5:35 AM 54.7 °F 47.3 °F 76% 30.05 in 10.0 mi SSE 4.6 mph - N/A   Overcast
5:55 AM 53.8 °F 46.4 °F 76% 30.05 in 10.0 mi SSE 4.6 mph - N/A   Mostly Cloudy
6:15 AM 53.1 °F 46.0 °F 77% 30.05 in 10.0 mi SSE 4.6 mph - N/A   Mostly Cloudy
6:35 AM 53.2 °F 46.4 °F 78% 30.05 in 10.0 mi SSE 4.6 mph - N/A   Mostly Cloudy
6:55 AM 54.0 °F 47.3 °F 78% 30.05 in 10.0 mi SSE 4.6 mph - N/A   Mostly Cloudy
7:15 AM 54.9 °F 47.5 °F 76% 30.05 in 10.0 mi SSE 3.5 mph - N/A   Mostly Cloudy
7:55 AM 55.9 °F 48.0 °F 75% 30.06 in 10.0 mi SSE 4.6 mph - N/A   Overcast
8:15 AM 56.7 °F 48.2 °F 73% 30.06 in 10.0 mi SSE 5.8 mph - N/A   Overcast
8:35 AM 56.5 °F 48.2 °F 74% 30.07 in 10.0 mi SSE 4.6 mph - N/A   Scattered Clouds
8:55 AM 57.4 °F 48.4 °F 72% 30.08 in 10.0 mi SSE 4.6 mph - N/A   Mostly Cloudy
10:35 AM 66.7 °F 49.8 °F 54% 30.06 in 10.0 mi South 8.1 mph - N/A   Clear
10:55 AM 68.2 °F 49.6 °F 51% 30.07 in 10.0 mi South 10.4 mph - N/A   Clear
11:15 AM 70.0 °F 50.0 °F 49% 30.06 in 10.0 mi South 10.4 mph - N/A   Clear
11:35 AM 70.2 °F 50.0 °F 49% 30.05 in 10.0 mi South 10.4 mph - N/A   Clear
11:55 AM 71.2 °F 50.7 °F 48% 30.06 in 10.0 mi South 8.1 mph - N/A   Clear
12:15 PM 71.6 °F 50.9 °F 48% 30.06 in 10.0 mi South 8.1 mph - N/A   Clear
12:35 PM 73.0 °F 51.6 °F 47% 30.06 in 10.0 mi South 12.7 mph 17.3 mph N/A   Clear
12:55 PM 72.7 °F 51.8 °F 48% 30.07 in 10.0 mi South 8.1 mph - N/A   Clear
1:15 PM 74.3 °F 52.2 °F 46% 30.06 in 10.0 mi SSW 8.1 mph - N/A   Clear
1:35 PM 74.3 °F 52.7 °F 47% 30.06 in 10.0 mi South 8.1 mph - N/A Thunderstorm Scattered Clouds
1:55 PM 74.3 °F 53.4 °F 48% 30.06 in 10.0 mi SSW 6.9 mph - N/A   Mostly Cloudy
2:15 PM 73.9 °F 54.0 °F 50% 30.06 in 10.0 mi SSW 9.2 mph - N/A Thunderstorm Overcast
2:35 PM 73.4 °F 54.5 °F 51% 30.07 in 10.0 mi SW 8.1 mph - N/A   Overcast
2:55 PM 72.5 °F 55.0 °F 54% 30.10 in 10.0 mi WNW 11.5 mph 21.9 mph N/A Thunderstorm Overcast
3:15 PM 67.1 °F 57.2 °F 70% 30.10 in 10.0 mi WNW 9.2 mph - N/A Rain , Thunderstorm Light Thunderstorms and Rain
3:35 PM 65.1 °F 58.6 °F 79% 30.08 in 10.0 mi NW 3.5 mph - 0.01 in   Overcast
3:55 PM 65.3 °F 59.0 °F 80% 30.06 in 10.0 mi Calm Calm - 0.01 in Rain Light Rain
4:15 PM 64.9 °F 59.0 °F 81% 29.99 in 10.0 mi SE 16.1 mph 20.7 mph N/A   Light Drizzle
4:35 PM 65.3 °F 58.5 °F 78% 29.99 in 10.0 mi ESE 4.6 mph - N/A   Scattered Clouds
4:55 PM 66.9 °F 58.3 °F 74% 30.00 in 10.0 mi South 4.6 mph - N/A   Clear
5:15 PM 66.9 °F 58.5 °F 74% 29.99 in 10.0 mi South 6.9 mph - N/A   Clear
5:35 PM 67.6 °F 58.1 °F 71% 29.98 in 10.0 mi SSE 8.1 mph - N/A   Clear
6:15 PM 68.4 °F 56.5 °F 66% 29.97 in 10.0 mi SSE 8.1 mph - N/A   Clear
6:35 PM 68.7 °F 55.4 °F 62% 29.98 in 10.0 mi SSE 5.8 mph - N/A   Clear
6:55 PM 68.0 °F 54.5 °F 62% 29.97 in 10.0 mi SSE 6.9 mph - N/A   Scattered Clouds
7:15 PM 68.4 °F 53.8 °F 60% 29.99 in 10.0 mi SE 4.6 mph - N/A   Mostly Cloudy
7:35 PM 67.1 °F 53.6 °F 62% 29.98 in 10.0 mi SSE 6.9 mph - N/A   Mostly Cloudy
7:55 PM 67.5 °F 53.2 °F 60% 29.98 in 10.0 mi ESE 3.5 mph - N/A   Mostly Cloudy
8:35 PM 65.1 °F 52.7 °F 64% 29.98 in 10.0 mi SSE 5.8 mph - N/A   Scattered Clouds
9:35 PM 64.8 °F 52.2 °F 64% 29.99 in 10.0 mi South 5.8 mph - N/A   Scattered Clouds
9:55 PM 64.4 °F 52.0 °F 64% 29.99 in 10.0 mi South 4.6 mph - N/A   Scattered Clouds
10:15 PM 61.5 °F 51.4 °F 69% 29.99 in 10.0 mi South 3.5 mph - N/A   Scattered Clouds
10:55 PM 64.4 °F 52.7 °F 66% 29.99 in 10.0 mi South 5.8 mph - N/A   Overcast
11:35 PM 65.1 °F 52.7 °F 64% 29.99 in 10.0 mi South 6.9 mph - N/A   Overcast